Regional Weather Roundup
Issued by NWS

Home | Current Version | Previous Version | Text Only | Print | Product List | Glossary Off
Versions: 1 2 3 4 5 6 7 8 9 10 11 12 13 14 15 16 17 18 19 20 21 22 23 24 25 26 27

000
ASUS43 KDMX 152107
RWRIA

WEATHER ROUNDUP FOR IOWA
NATIONAL WEATHER SERVICE DES MOINES IA
400 PM CDT TUE APR 15 2014

NOTE: "FAIR" INDICATES FEW OR NO CLOUDS BELOW 12,000 FEET WITH NO
SIGNIFICANT WEATHER AND/OR OBSTRUCTIONS TO VISIBILITY.

* - THESE STATIONS ARE NOT NWS STATIONS...THUS NOT UNDER NWS
QUALITY CONTROL.  THEY ALSO DO NOT REPORT WEATHER SUCH
AS PRECIPITATION OR FOG.

IAZ001>003-012>014-020>022-031>034-043>046-152200-
   NORTHWEST IOWA

CITY           SKY/WX    TMP DP  RH WIND       PRES   REMARKS
CARROLL *      SUNNY     43  21  42 S14G21    30.05F
CHEROKEE *     SUNNY     43  23  45 S16G23    30.01F
DENISON *      SUNNY     45  25  45 S14G22    30.01F
LE MARS *      SUNNY     45  23  42 S18G28    29.98F
ORANGE CITY *  SUNNY     43  18  36 S14G25    29.97F
SHELDON *      PTSUNNY   41  19  42 S15G26    29.98F
SIOUX CITY     SUNNY     50  23  34 SE14G26   29.98F
SPENCER        SUNNY     41  21  44 S15       30.01F
STORM LAKE *   MOSUNNY   41  23  48 S17       30.03F
$$

IAZ055>058-069>071-079>083-090>094-152200-
   SOUTHWEST IOWA

CITY           SKY/WX    TMP DP  RH WIND       PRES   REMARKS
ATLANTIC *     SUNNY     46  23  39 SW16G24   30.05F
AUDUBON *      SUNNY     46  16  29 S12       30.06F
CLARINDA *     SUNNY     50  25  37 S12G17    30.08F
COUNCIL BLFS * SUNNY     50  25  37 S12G23    30.00F
CRESTON *      SUNNY     46  25  42 S15       30.07F
HARLAN  *      SUNNY     46  25  42 S16       30.06F
LAMONI         SUNNY     46  18  32 S6        30.08F
RED OAK *      SUNNY     48  25  40 S9G21     30.05F
SHENANDOAH *   SUNNY     50  23  34 S13G21    30.05F
$$

IAZ047>049-059>061-072>074-084-152200-
   CENTRAL IOWA

CITY           SKY/WX    TMP DP  RH WIND       PRES   REMARKS
AMES           SUNNY     40  20  44 S5        30.10F
ANKENY *       SUNNY     41  19  42 SE5       30.10F
CHARITON *     SUNNY     43  21  42 S5        30.10F
DES MOINES     MOSUNNY   45  18  34 VRB3      30.10F
GRINNELL*      SUNNY     39  19  45 W10       30.11F WCI  32
KNOXVILLE *    SUNNY     41  16  36 CALM      30.11F
MARSHALLTOWN   SUNNY     37  15  40 SW6       30.11F WCI  32
NEWTON *       SUNNY     39  19  45 VRB6G14   30.11F WCI  35
PELLA *        SUNNY     45  21  39 S5        30.13F
PERRY *          N/A     43  25  49 S13       30.08F
$$

IAZ004>006-015-016-023>025-035-036-152200-
   NORTH CENTRAL IOWA

CITY           SKY/WX    TMP DP  RH WIND       PRES   REMARKS
ALGONA *       MOSUNNY   37  16  41 S12       30.05F WCI  30
CLARION *      SUNNY     37  14  38 W5        30.07F WCI  34
ESTHERVILLE    SUNNY     38  14  37 S14G20    30.02F WCI  30
FORT DODGE *   SUNNY     39  21  48 S7        30.08F WCI  34
MASON CITY     SUNNY     35  10  35 SW6       30.09F WCI  30
FOREST CITY *  SUNNY     36  14  41 SW5       30.06F WCI  32
IOWA FALLS *     N/A     37  16  41 CALM      30.10F
$$

IAZ007>011-017>019-026>030-037>042-050>054-066-152200-
   NORTHEAST IOWA

CITY           SKY/WX    TMP DP  RH WIND       PRES   REMARKS
CEDAR RAPIDS   SUNNY     39  13  34 NW10      30.12F WCI  32
CHARLES CITY * SUNNY     36  12  38 VRB5      30.10F WCI  32
CLINTON *      SUNNY     39  12  33 NW14      30.16F WCI  31
DECORAH *      MOSUNNY   36  14  41 VRB6      30.09S WCI  31
DUBUQUE        MOSUNNY   36  16  44 W12G20    30.10F WCI  28
MONTICELLO *   SUNNY     37  14  38 VRB7G13   30.12F WCI  32
OELWEIN *      SUNNY    N/A N/A N/A VRB6G15   30.11F
WATERLOO       SUNNY     37   9  31 VRB5      30.11F WCI  33
$$

IAZ064-065-067-068-078-152200-
   EAST CENTRAL IOWA

CITY           SKY/WX    TMP DP  RH WIND       PRES   REMARKS
DAVENPORT      SUNNY     40  17  39 SW12G17   30.15F WCI  33
IOWA CITY      SUNNY     41  11  29 W13G18    30.15F
MT. PLEASANT * SUNNY     43  18  36 W9        30.15F
MUSCATINE *    SUNNY     43  10  26 NW12G20   30.15F
QUAD CITIES    SUNNY     42  11  28 W10G21    30.14F
$$

IAZ062-063-075>077-085>089-095>099-152200-
   SOUTHEAST IOWA

CITY           SKY/WX    TMP DP  RH WIND       PRES   REMARKS
BURLINGTON     SUNNY     44  20  38 VRB6G20   30.15F
FAIRFIELD *    SUNNY     43  19  39 W9G15     30.14F
FORT MADISON * SUNNY     43  21  42 NW8G16    30.15F
KEOKUK *       MOSUNNY   43  16  33 CALM      30.14F
OSKALOOSA *      N/A     43  19  39 NE5       30.13F
CENTERVILLE *  SUNNY     45  18  33 NW3       30.13F
OTTUMWA        SUNNY     42  18  37 VRB5      30.12F
WASHINGTON *   SUNNY     41  18  38 NW13      30.14F
$$

ABBREVIATIONS USED IN REMARKS
   TC - TEMPERATURES IN CELSIUS
  WCI - WIND CHILL INDEX
   HX - HEAT INDEX
  VSB - VISIBILITY
$$




USA.gov is the U.S. government's official web portal to all federal, state and local government web resources and services.